Weather in Samotsvet

Russia / Sverdlovsk Oblast     57°36′16″N   61°46′46″E
temp.,
°C
wind,
m/s
gust,
m/s
humid.,
%
clouds,
%
prec.,
mm/h
press.,
hPa
HPBL,
m
25 july, sun
sun2523:00+17w116072 0.0 100611
02:00+13nw238073 0.0 100752
05:00+13nw3890100 0.1 1008336
08:00+11nnw499799 1.5 1010431
11:00+17nnw465185 2.0 10111353
14:00+19nw46323 0.0 10131943
17:00+20nw463312 0.0 10132443
20:00+16nw25545 0.0 1015110
26 july, mon
mon2623:00+14nnw3953100 0.0 1017615
02:00+10wnw27718 0.0 1018161
05:00+7wnw388055 0.0 1018151
08:00+14wnw375878 0.0 1018447
11:00+17wnw474379 0.0 10172310
14:00+18wnw3738100 0.0 10172325
17:00+17w474785 0.0 10161123
20:00+15wsw375948 0.0 1015300
27 july, tue
tue2723:00+14w3106495 0.0 1015325
02:00+12wsw397241 0.0 1014283
05:00+13wsw4127014 0.0 1013385
08:00+14wsw51269100 0.0 1011653
11:00+16wnw597325 0.4 10111199
14:00+19wnw5946100 0.3 10102168
17:00+19w5746100 0.3 10092167
20:00+15w376799 0.1 1009355
28 july, wed
wed2823:00+10nw389192 0.1 1010165
02:00+11nw497278 0.0 1010556
05:00+6wnw39895 0.0 1011272
08:00+11wnw48659 0.0 1011631
11:00+15wnw5945100 0.0 10092075
14:00+14wnw496484 0.3 10091519
17:00+16nw61146100 0.8 10092261
20:00+13nnw376188 0.0 10101021
29 july, thu
thu2923:00+8sw2278100 0.0 101020
02:00+11ssw3106984 0.0 1007300
05:00+11sw31180100 0.2 1005446
08:00+11sw41197100 5.5 1004410
11:00+15w597998 5.7 1004747
14:00+17w697152 1.1 10041234
17:00+17nw497490 2.6 10041326
20:00+14n267749 0.3 1006198